Temperature
7 7 6 6 6 6 5 5 4 4 4 5 5 6 6 6 5 5 5 5 5 5 5 5 5 5 5 5 5 5 5 5 5 5 5 5 5 5
6 6 6 6 6 5 5 5 4 4 4 4 5 5 5 5 5 5 5 5 5 5 5 4 4 4 4 5 5 5 4 4 4 4 4 4 4 4
5 5 5 5 5 5 5 5 4 4 4 4 4 4 4 4 4 4 4 4 4 4 4 4 4 4 4 4 4 4 4 4 4 4 4 4 4 4
5 5 5 5 5 5 4 4 4 4 3 3 4 4 4 4 3 3 4 4 4 3 3 3 3 3 3 3 3 3 3 3 3 3 3 3 3 3
4 4 4 4 4 4 4 4 3 3 3 3 3 3 3 3 3 3 3 3 3 3 3 3 3 3 3 3 3 3 3 3 3 3 3 3 3 3
4 4 4 4 4 3 3 3 3 3 2 2 2 3 3 2 2 3 3 3 3 2 2 2 2 2 2 2 2 2 2 2 2 2 2 2 2 2
4 3 3 3 3 3 3 3 2 2 2 2 2 2 2 2 2 2 2 2 2 2 2 2 2 2 2 2 2 2 2 1 1 1 1 2 2 2
3 3 3 3 3 3 2 2 2 2 2 2 2 2 2 2 1 1 1 1 1 1 1 1 1 1 1 1 1 1 1 1 1 1 1 1 1 1
3 3 3 2 2 2 2 2 2 2 1 1 1 1 1 1 1 1 0 0 0 0 0 1 1 1 1 1 1 1 1 1 0 0 0 0 0 0
2 2 2 2 2 2 1 1 1 1 1 1 1 1 1 0 0 -0 -0 -0 -0 0 -0 -0 0 0 0 1 0 0 0 0 -0 -0 -0 -0 -0 -0
2 2 1 1 1 1 1 1 1 1 1 1 1 1 0 0 -0 -0 -1 -1 -1 -0 -1 -1 -0 -0 0 0 0 -0 -0 -0 -1 -1 -1 -1 -1 -1
1 1 1 1 1 1 0 0 1 1 1 1 0 0 0 0 -0 -1 -1 -1 -2 -1 -1 -1 -1 -1 -1 -1 -1 -1 -1 -1 -1 -1 -1 -1 -1 -1
1 1 1 0 0 0 -0 -0 0 0 0 0 0 0 -0 -0 -1 -1 -1 -2 -2 -2 -2 -2 -2 -2 -2 -2 -1 -1 -1 -2 -2 -2 -2 -2 -2 -2
1 0 0 -0 -0 -0 -0 -0 -0 -0 -0 -0 -1 -1 -1 -1 -1 -1 -2 -2 -2 -2 -3 -3 -3 -3 -3 -3 -3 -2 -2 -2 -2 -2 -2 -2 -2 -2
-0 -0 -0 -0 -1 -1 -0 -1 -1 -1 -1 -1 -1 -1 -1 -1 -2 -2 -2 -3 -3 -3 -3 -3 -3 -4 -4 -4 -3 -3 -3 -2 -3 -3 -3 -3 -3 -3
-1 -1 -1 -1 -1 -1 -1 -1 -1 -1 -1 -1 -1 -1 -2 -2 -2 -3 -3 -3 -3 -3 -3 -3 -4 -4 -4 -4 -4 -4 -3 -4 -3 -3 -3 -3 -3 -3
-1 -1 -1 -1 -1 -1 -1 -1 -1 -1 -2 -2 -2 -2 -2 -2 -3 -3 -3 -4 -4 -4 -4 -4 -4 -4 -4 -4 -4 -4 -4 -4 -4 -4 -4 -4 -4 -4
-2 -2 -2 -2 -2 -2 -2 -2 -2 -2 -2 -2 -2 -3 -3 -3 -3 -4 -4 -4 -4 -4 -4 -4 -5 -5 -5 -5 -4 -4 -4 -4 -4 -4 -5 -5 -4 -4
-2 -2 -2 -2 -2 -2 -2 -2 -2 -2 -2 -3 -3 -3 -4 -4 -4 -4 -4 -4 -4 -4 -4 -5 -5 -5 -6 -6 -5 -5 -5 -5 -5 -5 -5 -5 -5 -4
-2 -2 -2 -2 -2 -2 -2 -3 -3 -3 -3 -3 -3 -4 -4 -4 -4 -4 -4 -4 -5 -5 -5 -5 -5 -6 -6 -6 -6 -5 -5 -5 -5 -5 -5 -5 -5 -5
-2 -3 -3 -3 -3 -3 -3 -3 -3 -3 -3 -4 -4 -4 -4 -4 -5 -5 -5 -5 -5 -5 -5 -5 -5 -6 -6 -6 -6 -5 -5 -6 -6 -6 -6 -6 -6 -5
-3 -3 -3 -3 -3 -3 -3 -3 -3 -3 -4 -4 -4 -4 -5 -5 -5 -5 -5 -5 -5 -6 -6 -6 -6 -6 -6 -6 -6 -6 -6 -6 -6 -6 -6 -6 -7 -7
-3 -3 -3 -3 -3 -4 -4 -4 -4 -4 -4 -4 -5 -5 -5 -5 -5 -5 -5 -6 -6 -6 -6 -6 -6 -6 -6 -7 -7 -7 -6 -6 -6 -6 -6 -6 -6 -6
Wind_Speed
3 3 2 2 2 2 2 2 3 5 5 3 2 1 2 3 5 6 7 9 10 11 11 11 11 11 11 11 11 10 10 10 10 10 10 10 10 11
3 3 3 3 2 2 2 2 2 4 5 3 3 3 3 4 7 7 8 10 10 11 11 10 10 10 11 11 11 10 10 10 10 10 10 10 10 11
4 4 4 3 3 3 2 3 3 3 6 6 4 3 3 4 6 7 9 8 8 10 11 10 11 11 11 11 10 10 10 10 10 10 11 11 11 11
5 4 4 3 4 4 3 3 4 4 5 7 6 4 5 4 4 5 6 8 8 10 11 11 11 11 11 11 10 10 10 9 10 10 11 11 11 11
5 5 5 4 5 4 4 4 4 5 4 6 6 5 4 4 4 5 6 5 8 9 10 11 11 11 11 10 10 9 9 9 10 10 11 11 12 12
5 6 6 6 6 5 5 5 5 5 4 5 6 5 5 4 3 4 6 5 6 7 9 10 11 11 11 10 10 10 9 10 10 11 11 11 11 12
6 6 6 7 8 7 6 5 5 5 5 5 6 5 5 4 4 4 5 6 5 4 4 5 6 6 7 9 10 10 10 10 11 11 11 12 12 12
7 6 7 7 9 11 11 10 8 7 6 6 6 7 7 6 5 4 4 5 5 3 3 6 5 5 5 6 9 10 10 10 11 11 12 12 12 12
7 7 7 7 8 7 9 11 11 13 12 8 8 9 8 6 5 5 5 6 7 5 4 6 4 5 5 7 10 10 9 10 11 11 11 12 12 12
7 7 8 8 7 7 6 7 8 9 10 9 8 9 8 6 5 5 5 5 5 4 3 5 4 4 5 6 9 10 10 10 11 11 11 12 12 12
8 8 8 8 10 10 7 8 8 8 9 11 12 11 12 10 6 3 3 4 6 4 2 3 4 4 4 4 6 9 10 11 11 11 12 12 12 12
7 7 10 11 11 11 7 7 9 9 6 6 6 7 7 7 8 5 5 5 5 5 3 2 3 2 4 4 3 5 6 9 11 11 12 12 12 8
6 6 7 11 13 12 11 8 12 9 6 6 5 5 4 4 4 4 4 5 6 6 3 2 3 2 3 4 4 3 4 4 6 8 10 11 11 8
7 6 7 11 12 13 11 12 13 10 5 5 5 5 5 4 4 4 5 5 6 7 5 4 4 4 4 5 5 4 4 4 4 4 5 9 9 10
7 10 11 12 12 10 12 13 9 6 5 6 6 6 5 5 4 3 3 4 4 6 6 6 5 4 4 6 5 5 4 4 3 3 3 3 4 4
8 9 12 13 10 10 9 8 6 6 6 6 6 5 3 3 4 3 3 3 4 5 5 7 6 5 6 6 7 7 5 4 3 4 4 4 4 5
6 5 5 5 5 5 5 5 5 5 6 5 5 4 4 4 4 3 3 3 4 5 4 3 4 6 6 6 6 7 6 6 5 4 4 5 5 4
8 6 7 7 7 7 6 6 5 6 6 5 5 5 5 5 4 3 3 4 5 5 4 3 2 3 3 4 8 8 6 6 4 4 3 4 6 5
8 7 8 8 7 7 6 6 7 6 5 5 6 5 5 4 4 4 4 4 5 5 4 3 3 3 4 6 4 7 5 4 4 4 4 4 6 6
7 8 8 8 7 7 7 6 6 5 5 5 5 5 5 5 5 5 4 5 5 4 4 3 3 4 5 5 4 3 6 5 4 5 5 4 5 8
7 7 7 7 7 7 6 6 6 6 6 5 5 5 5 5 5 5 4 6 5 4 5 4 4 5 3 2 3 4 3 6 6 5 4 4 5 5
7 7 7 7 6 6 6 5 5 6 6 6 5 5 5 5 5 5 5 5 5 4 4 3 2 2 2 3 5 5 5 4 5 8 8 7 4 3
7 7 7 6 6 5 5 6 7 6 6 6 5 5 5 4 4 4 4 4 4 4 3 3 2 2 3 3 4 4 5 5 4 4 4 6 9 11
Wind_Direction
253 258 259 262 259 261 261 254 257 284 286 273 279 285 303 300 307 305 302 303 305 306 305 306 308 310 312 314 315 314 314 313 313 311 314 317 310 309
241 248 258 263 266 258 252 257 248 252 274 283 283 288 297 304 305 299 295 299 297 298 301 302 304 305 305 306 308 308 309 310 310 312 313 316 317 314
249 240 248 252 258 261 254 253 255 252 268 285 289 293 293 290 298 292 292 289 289 294 295 296 300 301 302 303 303 302 305 306 306 308 310 312 312 311
252 247 249 251 252 253 251 251 253 251 257 278 289 290 281 276 284 292 295 294 289 292 293 294 294 295 294 296 296 295 296 299 301 304 305 306 306 305
246 247 248 245 251 249 248 249 252 259 251 266 280 287 287 290 293 296 294 288 289 290 293 294 294 293 290 288 290 290 291 293 294 296 298 299 300 300
245 245 246 242 245 246 249 248 251 256 258 263 272 282 285 290 288 290 299 294 292 293 290 290 290 289 285 284 286 285 284 288 290 290 292 294 295 295
253 249 247 244 244 247 252 247 247 253 257 261 268 278 279 286 281 280 287 298 292 284 293 291 288 281 274 277 281 281 279 283 287 289 290 292 293 292
258 258 255 249 251 255 256 255 248 249 251 254 263 265 270 270 273 277 285 299 294 294 300 290 282 275 270 261 274 280 283 284 284 287 289 289 290 291
252 256 262 256 255 253 259 261 260 257 253 250 256 259 265 264 267 271 267 268 271 281 298 285 277 275 274 271 276 277 283 290 289 288 289 289 290 290
250 248 252 257 251 248 253 258 259 258 256 253 250 256 258 257 249 256 261 274 276 271 255 271 283 280 286 276 271 271 281 291 295 295 294 292 291 291
255 251 251 256 257 254 253 258 265 266 264 256 254 259 262 264 262 264 263 274 281 275 244 250 282 296 291 280 272 276 284 292 295 296 293 293 293 293
259 254 252 253 259 258 252 253 262 266 266 271 267 266 266 264 262 247 237 252 268 273 245 241 276 306 301 291 289 288 286 289 291 295 297 294 295 298
263 262 257 258 260 262 260 253 259 266 260 256 260 261 260 254 253 245 237 237 248 258 252 236 261 263 263 291 294 277 276 287 294 296 299 299 297 295
261 262 260 263 263 264 264 261 264 268 260 255 256 256 253 251 248 244 241 240 241 249 249 237 244 251 266 281 286 291 287 283 284 288 296 302 301 296
261 263 267 270 269 265 261 261 261 255 247 249 251 253 247 239 237 245 250 247 254 257 253 243 240 247 250 262 275 284 295 288 277 277 288 293 291 293
266 267 270 271 264 257 261 258 245 240 244 248 253 253 246 237 237 240 252 255 265 269 254 244 238 238 254 259 265 276 273 274 289 287 290 287 284 279
273 272 267 267 260 254 252 250 243 240 248 246 248 252 248 244 245 232 240 246 255 265 271 256 249 248 248 254 263 266 269 269 272 282 291 294 286 273
273 264 260 256 255 253 251 251 245 242 240 239 240 241 243 243 245 237 237 247 256 262 264 261 261 282 280 261 239 258 266 266 272 273 275 283 289 287
262 255 255 254 253 251 248 247 248 244 236 233 236 237 236 237 240 241 240 249 257 260 259 250 249 253 275 285 267 225 243 266 276 276 267 263 277 284
248 252 253 252 252 250 247 247 248 245 238 234 234 231 227 232 237 240 239 245 255 261 260 248 239 239 245 260 274 275 250 250 260 271 279 280 278 283
255 254 253 251 251 248 245 243 241 242 239 232 232 230 227 228 237 239 240 243 251 255 255 255 249 251 248 252 276 279 275 257 253 258 271 285 293 299
260 260 258 253 249 246 243 242 243 243 237 232 231 229 225 226 236 237 237 241 246 248 255 262 251 242 225 242 266 282 294 301 287 279 267 254 257 271
262 262 260 256 250 246 242 239 241 244 236 229 227 225 221 226 232 233 235 239 242 243 248 260 258 240 245 249 267 284 291 300 305 307 293 276 269 272
Height
1497 1497 1496 1496 1495 1495 1494 1494 1493 1490 1487 1486 1486 1485 1484 1483 1481 1479 1478 1476 1474 1473 1471 1469 1468 1466 1464 1463 1461 1460 1459 1458 1456 1455 1454 1453 1452 1452
1494 1493 1492 1492 1491 1491 1490 1489 1489 1488 1484 1482 1482 1481 1480 1478 1477 1475 1473 1471 1470 1468 1466 1465 1463 1461 1460 1458 1457 1455 1454 1453 1451 1450 1449 1448 1447 1446
1490 1489 1488 1488 1487 1487 1486 1485 1484 1483 1480 1478 1478 1477 1475 1474 1472 1470 1468 1466 1465 1463 1461 1459 1458 1456 1454 1453 1452 1450 1449 1448 1446 1445 1444 1443 1442 1442
1486 1485 1484 1484 1483 1482 1481 1480 1479 1478 1477 1474 1472 1471 1470 1469 1467 1465 1464 1462 1460 1458 1456 1454 1452 1451 1449 1448 1446 1445 1444 1442 1441 1440 1439 1438 1437 1436
1481 1480 1479 1479 1478 1477 1476 1475 1474 1473 1472 1470 1467 1467 1465 1464 1462 1460 1459 1457 1455 1453 1451 1449 1447 1446 1444 1442 1441 1439 1438 1437 1436 1435 1434 1433 1432 1431
1476 1475 1475 1474 1473 1472 1471 1470 1469 1468 1467 1465 1463 1461 1460 1459 1457 1455 1453 1452 1450 1448 1446 1444 1442 1440 1439 1437 1436 1434 1433 1431 1430 1429 1428 1427 1426 1425
1470 1470 1469 1469 1468 1467 1466 1465 1464 1462 1461 1460 1458 1456 1455 1454 1452 1450 1448 1446 1444 1443 1440 1439 1437 1435 1433 1432 1430 1429 1427 1426 1425 1424 1422 1421 1420 1419
1465 1464 1463 1463 1462 1461 1460 1459 1458 1457 1456 1455 1453 1451 1450 1449 1447 1445 1443 1440 1438 1438 1435 1433 1432 1429 1428 1426 1425 1423 1422 1420 1419 1418 1417 1415 1414 1413
1459 1458 1457 1457 1456 1455 1454 1453 1452 1451 1451 1450 1447 1446 1445 1443 1442 1440 1438 1436 1433 1432 1430 1426 1426 1424 1423 1421 1420 1418 1417 1415 1414 1412 1411 1410 1408 1408
1454 1453 1452 1451 1450 1449 1448 1446 1445 1445 1444 1443 1442 1440 1439 1438 1436 1435 1433 1430 1428 1427 1426 1422 1420 1418 1417 1415 1414 1413 1411 1410 1408 1406 1405 1404 1403 1402
1448 1447 1446 1445 1444 1443 1442 1440 1439 1438 1437 1436 1435 1434 1432 1432 1431 1429 1427 1425 1422 1421 1420 1418 1414 1412 1411 1409 1408 1407 1406 1404 1403 1401 1399 1398 1397 1396
1441 1440 1439 1439 1438 1437 1436 1434 1432 1431 1430 1429 1428 1427 1426 1425 1424 1423 1422 1420 1417 1415 1414 1413 1410 1408 1405 1403 1403 1402 1401 1399 1397 1396 1394 1392 1391 1390
1435 1434 1433 1433 1432 1431 1430 1428 1426 1425 1424 1422 1421 1420 1419 1418 1417 1417 1416 1415 1413 1410 1410 1408 1406 1404 1402 1398 1397 1396 1395 1393 1392 1390 1389 1387 1386 1385
1429 1428 1427 1426 1425 1424 1423 1422 1421 1419 1417 1416 1414 1413 1412 1411 1411 1410 1409 1408 1407 1405 1404 1403 1401 1399 1397 1394 1392 1390 1390 1388 1387 1385 1383 1382 1381 1380
1423 1422 1421 1420 1419 1417 1416 1415 1414 1412 1411 1409 1408 1407 1406 1405 1404 1404 1403 1402 1401 1399 1398 1397 1396 1394 1392 1390 1387 1385 1384 1383 1382 1380 1378 1377 1375 1374
1417 1416 1415 1413 1412 1410 1409 1408 1407 1406 1405 1403 1402 1401 1400 1399 1398 1398 1397 1396 1395 1393 1393 1391 1390 1388 1386 1385 1383 1380 1379 1378 1376 1375 1373 1372 1371 1370
1410 1409 1407 1406 1405 1404 1402 1401 1401 1400 1398 1397 1396 1395 1394 1393 1392 1392 1391 1390 1389 1387 1386 1386 1385 1383 1381 1380 1378 1376 1375 1373 1372 1371 1369 1367 1366 1366
1404 1402 1401 1399 1398 1397 1396 1395 1394 1393 1392 1391 1390 1389 1388 1387 1387 1386 1386 1385 1384 1382 1381 1380 1379 1378 1376 1374 1374 1372 1370 1369 1368 1367 1365 1363 1361 1361
1397 1395 1394 1393 1392 1391 1389 1388 1387 1387 1386 1385 1384 1383 1383 1382 1381 1381 1380 1379 1379 1378 1377 1376 1375 1374 1372 1369 1368 1368 1367 1365 1363 1362 1361 1359 1357 1356
1390 1389 1388 1386 1385 1384 1383 1382 1381 1380 1380 1379 1378 1378 1377 1377 1376 1375 1375 1374 1374 1373 1372 1371 1371 1370 1368 1367 1365 1363 1363 1361 1359 1358 1356 1355 1354 1352
1384 1382 1381 1380 1379 1377 1376 1375 1375 1374 1373 1373 1372 1372 1371 1371 1371 1370 1370 1369 1369 1368 1367 1367 1367 1366 1365 1363 1361 1359 1359 1358 1357 1355 1353 1351 1349 1347
1377 1376 1374 1373 1372 1371 1370 1369 1368 1368 1367 1367 1366 1366 1366 1366 1366 1366 1365 1365 1364 1364 1363 1363 1363 1362 1361 1359 1357 1356 1355 1354 1353 1352 1350 1349 1347 1344
1370 1369 1367 1366 1365 1364 1363 1363 1362 1361 1361 1361 1361 1361 1361 1361 1361 1361 1361 1361 1360 1360 1359 1359 1358 1358 1357 1356 1354 1353 1351 1350 1349 1347 1347 1346 1344 1343